Погода Правая Хетта

Погода Правая Хетта : погода сейчас, прогноз погоды и архив. Всё, что Вы хотите узнать о погоде Правая Хетта!

Хотите узнать прогноз погоды Правая Хетта? Тогда Вам сюда: Погода Правая Хетта

Поиск расширенной информации на нашем сайте:

Другие новости

Новости СМИ2

Главная страница сайта

Новости сайта

02.10.2013

Напоминаем, что на нашем новом сайте вы можете получить высокодетализированные прогнозы погоды по пунктам России, СНГ и мира (включающие важные для авиации метеовеличины, такие как направление и скорость ветра, видимость, явления погоды, количество и форма облачности, нижняя и верхняя граница облачности), а также ознакомиться с разнообразными материалами по авиационной метеорологии и подборкой полезных ссылок на эту тему.

Сайт Метеоцентр.Азия посвящён разработке технологий оптимизации авиаметеорологического обслуживания, включая проектирование и перспективное создание нескольких автоматизированных авиаметеорологических систем:
- система выпуска высокодетальных прогностических карт явлений погоды для нижнего воздушного пространства по России и ближнему зарубежью;
- система верификации прогнозов TAF (выпускаемых синоптиками официальных АМСГ РФ и ближнего зарубежья) и AUTOTAF (выпускаемых сайтом Метеоцентр.Азия) - выявление ошибок, онлайн-сопоставление с фактической погодой METAR, автоматическое внесение коррективов в прогнозы при резком отклонении фактической погоды от прогноза, подсчёт оправдываемости прогнозов по элементам и в целом;
- система обработки, анализа и отображения авиаметеорологической информации для применения провайдерами метеорологической информации.

Рекомендуем: Сонник видеть себя беременной к чему снится во сне сонник видеть себя беременной во сне.

Погода Правая Хетта - сегодня

Время (UTC), дата Ветер
(°,м/с) 
Видим.   Явления Облачность Т
(°С)
Тd
(°С)
f(%) Тe
(°С)
Pmin
(гПа)
dP
(гПа)
Po
(мм)
O2
(г/м3)
Тmin Tmax R s Состояние
почвы
18 27.04.17 150 (ЮВ) 20000 м    10/0 верхняя 
[Cs]
-8 -11.6 75 -11  1020  -1.4  760  317           
21 27.04.17 160 (Ю) 20000 м    8/0 средняя, верхняя 
[Ac trans|Ci fib]
-6.5 -10.3 74 -10  1016.5  -3.5  757  314           
00 28.04.17 180 (Ю) 4{10}  4000 м  слаб. снег  10/10 210 м 
[Ns]
-5.1 -7.7 82 -8  1011.9  -4.5  754  310           
03 28.04.17 200 (Ю) 1000 м  ливневой снег  10/10 480 м кучево-дожд. 
[Cb cap]
-2.3 -4.4 85 -5  1008.5  -3.3  751  306  -9    0.9  74  равномерный
сухой снег
100% 
06 28.04.17 230 (ЮЗ) 20000 м  {ливн. осадки, снег}  10/10 360 м кучево-дожд. 
[Cb cap]
+1.5 -1.3 82 1006.9  -1.5  750  301           
09 28.04.17 260 (З) 20000 м  {ливн. осадки}  10/10 400 м кучево-дожд. 
[Cb cap]
+3.6 -2.1 66 +2  1005.6  -1.2  749  298           
12 28.04.17 330 (СЗ) 20000 м  {ливн. осадки}  6/0 средняя 
[Ac trans]
+5.3 -2.6 57 +6  1005  -0.6  749  296           
15 28.04.17 340 (С) 20000 м    8/0 средняя 
[Ac trans]
+1.7 -2.3 75 +2  1004.9  -0.2  749  300    +5.5  0.0     
18 28.04.17 260 (З) 20000 м    10/6 1020 м средняя 
[Sc|Ac trans]
+0.2 -2.4 83 +1  1004.5  -0.4  749  302           
21 28.04.17 260 (З) 20000 м    10/4 1000 м средняя 
[Sc|Ac trans]
-0.8 -2.8 86 -2  1003.7  -0.8  748  303           
00 29.04.17 280 (З) 10 км  слаб. снег  10/0 средняя 
[As trans]
-0.2 -2 88 -1  1003.5  -0.2  748  302           
03 29.04.17 300 (СЗ) 20000 м  в посл. час снег  10/10 210 м 
[St]
-0.4 -2.8 84 -2  1004.7  1.2  749  302  -1.2    0.0  72  равномерный
сухой снег
100% 
06 29.04.17 360 (С) 20000 м  {ливн. осадки, снег}  10/3 300 м кучево-дожд., средняя 
[Cb cap|As trans]
+0.3 -4.5 70 -1  1007.3  2.6  751  303           
09 29.04.17 340 (С) 4-11{11}  10 км  слаб. ливневой снег  10/10 420 м кучево-дожд. 
[Cb cap]
-2.7 -6.7 74 -6  1011.2  3.8  753  307           
12 29.04.17 340 (С) 3{11}  20000 м  {ливн. осадки}  9/9 450 м кучево-дожд. 
[Cb cap]
-4.6 -8.8 72 -7  1015.4  4.1  757  311           
15 29.04.17 340 (С) 4{10}  20000 м    4/3 300 м верхняя 
[Sc|Ci fib]
-8.9 -12 78 -13  1018.6  759  317    +0.7  0.0     
18 29.04.17 310 (СЗ) 2{10}  20000 м    4/0 верхняя 
[Ci fib]
-10.2 -12.4 84 -12  1019.9  1.2  760  319           
21 29.04.17 280 (З) 4000 м  слаб. снег  10/0 средняя 
[As trans]
-10.1 -12.1 85 -13  1019.8  0.1  760  319           
00 30.04.17 280 (З) 4000 м  слаб. ливневой снег  10/10 570 м кучево-дожд. 
[Cb cap]
-8.3 -11 81 -11  1018.8  -0.9  759  316           
03 30.04.17 310 (СЗ) 10 км  слаб. ливневой снег  10/8 540 м кучево-дожд., средняя 
[Cb cap|Ac trans]
-5.5 -10 71 -8  1019  0.2  759  313  -10.8    0.2  71  равномерный
сухой снег
100% 
06 30.04.17 330 (СЗ) 10 км  слаб. ливневой снег  10/10 400 м кучево-дожд. 
[Cb cap]
-4.7 -10.3 65 -6  1019.2  0.2  759  312           
09 30.04.17 130 (ЮВ) 20000 м  {ливн. осадки}  10/10 660 м кучево-дожд. 
[Cb cap]
-3.8 -9.6 64 -5  1017.7  -1.4  758  311           
12 30.04.17 170 (Ю) 1000 м  ливневой снег  10/10 400 м кучево-дожд. 
[Cb cap]
-3.4 -5.6 85 -5  1014.7  -2.9  756  309           
15 30.04.17 170 (Ю) 4000 м  слаб. ливневой снег  10/10 400 м кучево-дожд. 
[Cb cap]
-3.1 -4.5 90 -4  1011.5  -3.2  754  308    -2.5     
18 30.04.17 320 (СЗ) 6-12{14}  1000 м  ливневой снег  10/10 300 м кучево-дожд. 
[Cb cap]
-3.3 -4.6 91 -7  1011.4  -0.1  754  308           
Время (UTC), дата Ветер
(°,м/с) 
Видим.   Явления Облачность Т
(°С)
Тd
(°С)
f(%) Тe
(°С)
Pmin
(гПа)
dP
(гПа)
Po
(мм)
O2
(г/м3)
Тmin Tmax R s Состояние
почвы

Для получения пояснительной информации подведите курсор к названию столбца.

ПОГОДА Правая Хетта - архив

Всё, что Вы хотите узнать о погоде Правая Хетта - удобно и подробно!

Выберите нужную дату (начиная с 1 января 2015* года) и нажмите кнопку "Найти".
Будут отображены архивные сводки погоды по пункту Правая Хетта, начиная с указанной даты.


Отображать данные в формате CSV (для использования в таблицах Excel)


Внимание! Наш архив погоды предназначен исключительно для личного некоммерческого использования в познавательных целях. Если Вам необходимы официальные справки о состоянии погоды (для производственных, юридических, коммерческих и т.п. целей), обращайтесь в органы Росгидромета.

*Примечание: данная дата относится к архиву по метеостанциям СССР (Россия, СНГ, Балтия).
Архив по метеостанциям Зарубежной Европы и Азии (кроме Китая) хранится 10 дней, по другим регионам земного шара (Китай, Африка, Америка, Австралия, Океания) - 1 день.

Правая Хетта - район местоположения метеостанции


Название, широта, долгота, высота метеостанции:
Правая Хетта 65.9°ш. 74.5°д. 54 м над ур. моря [Российская Федерация]

Дополнительная информация

В oтличие oт бoльшинства пoгoдных сайтoв мы публикуем пoдрoбную метеoинфoрмацию в детальнoм прoфессиoнальнoм фoрмате.

Характеристики температуры и влажнoсти вoздуха измеряются на высoте 2 м в тени вдали oт зданий и деревьев.
Скoрoсть ветра измеряется на высoте 10 м (на урoвне рoста челoвека скoрoсть ветра ниже в 1.5-2 раза). Если метеoстанция нахoдится в гoрoде или в лесу, тo скoрoсть ветра занижена на 2-4 м/с пo сравнению с oткрытым местoм. Скoрoсть ветра над акватoриями крупных рек и oзёр, а также на вершинах хoлмoв на 2-5 м/с выше, чем в oбычных услoвиях.
Атмoсфернoе давление в разных тoчках местнoсти мoжет значительнo oтличаться oт давления на метеoстанции, в зависимoсти oт услoвий рельефа (при пoдъёме на 10 м давление пoнижается примернo на 1 мм рт.ст.).